| time (UTC) | temp F | wind direction | speed MPH | gust MPH | rain 1hr in | rain 24hr in | rain mn in | humidity % | barometer mb |
| 20260504110325 | 75 | 182 | 16.0 | 21.0 | 0.00 | 0.00 | 0.00 | 100 | 1015.7 |
| 20260504100322 | 75 | 153 | 12.0 | 19.0 | 0.00 | 0.00 | 0.00 | 100 | 1016.3 |
| 20260504081516 | 70 | 127 | 11.0 | 19.0 | 0.00 | 0.00 | 0.00 | 100 | 1016.8 |
| 20260504080315 | 70 | 208 | 12.0 | 18.0 | 0.00 | 0.00 | 0.00 | 100 | 1016.8 |
| 20260504070312 | 68 | 175 | 10.0 | 21.0 | 0.00 | 0.00 | 0.00 | 100 | 1016.7 |
| 20260504050305 | 58 | 201 | 3.0 | 6.0 | 0.00 | 0.00 | 0.00 | 100 | 1016.5 |
| 20260504045104 | 57 | 198 | 1.0 | 5.0 | 0.00 | 0.00 | 0.00 | 100 | 1016.7 |
| 20260504043904 | 56 | 157 | 0.0 | 8.0 | 0.00 | 0.00 | 0.00 | 100 | 1016.7 |
| 20260504042703 | 56 | 175 | 1.0 | 4.0 | 0.00 | 0.00 | 0.00 | 100 | 1016.7 |
| 20260504041502 | 55 | 194 | 0.0 | 0.0 | 0.00 | 0.00 | 0.00 | 100 | 1016.5 |
| 20260504040301 | 55 | 168 | 0.0 | 2.0 | 0.00 | 0.00 | 0.00 | 100 | 1016.7 |
| 20260504035101 | 55 | 198 | 1.0 | 3.0 | 0.00 | 0.00 | 0.00 | 100 | 1016.5 |
| 20260504033900 | 55 | 217 | 0.0 | 4.0 | 0.00 | 0.00 | 0.00 | 100 | 1016.4 |
| 20260504032659 | 56 | 300 | 3.0 | 3.0 | 0.00 | 0.00 | 0.00 | 100 | 1016.3 |
| 20260504031459 | 56 | 191 | 1.0 | 7.0 | 0.00 | 0.00 | 0.00 | 100 | 1016.3 |
| 20260504030258 | 57 | 196 | 6.0 | 10.0 | 0.00 | 0.00 | 0.00 | 100 | 1016.3 |
| 20260504025057 | 57 | 182 | 3.0 | 11.0 | 0.00 | 0.00 | 0.00 | 100 | 1016.2 |
| 20260504023857 | 57 | 154 | 8.0 | 12.0 | 0.00 | 0.00 | 0.00 | 100 | 1016.1 |
| 20260504022656 | 57 | 188 | 10.0 | 11.0 | 0.00 | 0.00 | 0.00 | 100 | 1016.0 |
| 20260504021455 | 57 | 185 | 4.0 | 9.0 | 0.00 | 0.00 | 0.00 | 100 | 1016.1 |
| 20260504020255 | 57 | 220 | 4.0 | 7.0 | 0.00 | 0.00 | 0.00 | 100 | 1016.1 |
| 20260504015054 | 57 | 226 | 3.0 | 7.0 | 0.00 | 0.00 | 0.00 | 100 | 1016.0 |
| 20260504013853 | 57 | 227 | 5.0 | 8.0 | 0.00 | 0.00 | 0.00 | 100 | 1016.0 |
| 20260504012653 | 57 | 192 | 4.0 | 8.0 | 0.00 | 0.00 | 0.00 | 100 | 1016.1 |
| 20260504011452 | 57 | 234 | 5.0 | 10.0 | 0.00 | 0.00 | 0.00 | 100 | 1016.1 |
| 20260504010251 | 58 | 285 | 0.0 | 7.0 | 0.00 | 0.00 | 0.00 | 100 | 1016.1 |
| 20260504005051 | 57 | 223 | 5.0 | 10.0 | 0.00 | 0.00 | 0.00 | 100 | 1016.2 |
| 20260504003850 | 58 | 253 | 4.0 | 9.0 | 0.00 | 0.00 | 0.00 | 100 | 1016.2 |
| 20260504002649 | 58 | 239 | 7.0 | 9.0 | 0.00 | 0.00 | 0.00 | 100 | 1016.2 |
| 20260504001449 | 58 | 275 | 2.0 | 4.0 | 0.00 | 0.00 | 0.00 | 100 | 1016.3 |
| 20260504000248 | 58 | 253 | 4.0 | 4.0 | 0.00 | 0.00 | 0.00 | 100 | 1016.3 |
| 20260503235047 | 58 | 198 | 1.0 | 7.0 | 0.00 | 0.00 | 0.00 | 100 | 1016.2 |
| 20260503233847 | 58 | 187 | 6.0 | 7.0 | 0.00 | 0.00 | 0.00 | 100 | 1016.3 |
| 20260503232646 | 59 | 201 | 3.0 | 9.0 | 0.00 | 0.00 | 0.00 | 100 | 1016.4 |
| 20260503231445 | 59 | 180 | 5.0 | 10.0 | 0.00 | 0.00 | 0.00 | 100 | 1016.5 |
| 20260503230244 | 58 | 187 | 6.0 | 10.0 | 0.00 | 0.00 | 0.00 | 100 | 1016.5 |
| 20260503225044 | 58 | 196 | 4.0 | 11.0 | 0.00 | 0.00 | 0.00 | 100 | 1016.7 |
| 20260503223843 | 59 | 191 | 6.0 | 13.0 | 0.00 | 0.00 | 0.00 | 100 | 1016.8 |
| 20260503222642 | 59 | 171 | 5.0 | 8.0 | 0.00 | 0.00 | 0.00 | 100 | 1016.8 |
| 20260503221442 | 59 | 192 | 7.0 | 10.0 | 0.00 | 0.00 | 0.00 | 100 | 1016.8 |
| 20260503220241 | 59 | 180 | 4.0 | 10.0 | 0.00 | 0.00 | 0.00 | 100 | 1016.9 |
| 20260503215040 | 59 | 212 | 5.0 | 9.0 | 0.00 | 0.00 | 0.00 | 100 | 1017.0 |
| 20260503213840 | 59 | 222 | 5.0 | 13.0 | 0.00 | 0.00 | 0.00 | 100 | 1017.1 |
| 20260503212639 | 59 | 178 | 6.0 | 9.0 | 0.00 | 0.00 | 0.00 | 100 | 1017.1 |
| 20260503211438 | 59 | 203 | 4.0 | 9.0 | 0.00 | 0.00 | 0.00 | 100 | 1017.2 |
| 20260503210238 | 58 | 187 | 5.0 | 9.0 | 0.00 | 0.00 | 0.00 | 100 | 1017.2 |
| 20260503205037 | 58 | 136 | 3.0 | 9.0 | 0.00 | 0.00 | 0.00 | 100 | 1017.2 |
| 20260503203836 | 59 | 175 | 3.0 | 3.0 | 0.00 | 0.00 | 0.00 | 100 | 1017.3 |
| 20260503202636 | 59 | 196 | 3.0 | 3.0 | 0.00 | 0.00 | 0.00 | 100 | 1017.3 |
| 20260503201435 | 60 | 192 | 1.0 | 4.0 | 0.00 | 0.00 | 0.00 | 100 | 1017.4 |
| 20260503200234 | 60 | 181 | 3.0 | 6.0 | 0.00 | 0.00 | 0.00 | 100 | 1017.4 |
| 20260503195034 | 60 | 195 | 2.0 | 3.0 | 0.00 | 0.00 | 0.00 | 100 | 1017.4 |
| 20260503193833 | 61 | 170 | 1.0 | 4.0 | 0.00 | 0.00 | 0.00 | 100 | 1017.5 |
| 20260503192632 | 61 | 168 | 2.0 | 4.0 | 0.00 | 0.00 | 0.00 | 100 | 1017.5 |
| 20260503191432 | 62 | 158 | 1.0 | 2.0 | 0.00 | 0.00 | 0.00 | 100 | 1017.4 |
| 20260503190231 | 62 | 157 | 0.0 | 2.0 | 0.00 | 0.00 | 0.00 | 100 | 1017.4 |
| 20260503185030 | 63 | 161 | 1.0 | 4.0 | 0.00 | 0.00 | 0.00 | 100 | 1017.3 |
| 20260503183830 | 64 | 171 | 1.0 | 2.0 | 0.00 | 0.00 | 0.00 | 100 | 1017.2 |
| 20260503182629 | 65 | 177 | 2.0 | 2.0 | 0.00 | 0.00 | 0.00 | 100 | 1017.1 |
| 20260503181428 | 66 | 171 | 0.0 | 2.0 | 0.00 | 0.00 | 0.00 | 100 | 1017.1 |
| 20260503180228 | 67 | 192 | 1.0 | 7.0 | 0.00 | 0.00 | 0.00 | 100 | 1017.0 |
| 20260503175027 | 68 | 209 | 3.0 | 9.0 | 0.00 | 0.00 | 0.00 | 100 | 1016.9 |
| 20260503173826 | 68 | 206 | 9.0 | 11.0 | 0.00 | 0.00 | 0.00 | 100 | 1016.9 |
| 20260503172625 | 69 | 202 | 5.0 | 12.0 | 0.00 | 0.00 | 0.00 | 100 | 1016.8 |
| 20260503171425 | 70 | 226 | 4.0 | 12.0 | 0.00 | 0.00 | 0.00 | 100 | 1016.8 |
| 20260503170224 | 71 | 216 | 7.0 | 9.0 | 0.00 | 0.00 | 0.00 | 100 | 1016.8 |
| 20260503150705 | 75 | 175 | 13.0 | 15.0 | 0.00 | 0.00 | 0.00 | 100 | 1017.0 |
| 20260503130659 | 75 | 158 | 12.0 | 15.0 | 0.00 | 0.00 | 0.00 | 100 | 1018.2 |